CZ-6A DEB

Satellite information

Favourite Embed

Satellite Type and Status

DEBRISIN ORBIT

Key statistics

Satellite CZ-6A DEB at a glance.

Uptime

1031

Days in orbit

Revolutions

≈ 14.7

Per day

Orbit

SSO

Sun Synchronous Orbit

Inclination

98.7

Latest

Satellite identification and parameters

Extended collection of information and parameters for CZ-6A DEB.

Object identification

Identified? True

Debris? True

Object name: CZ-6A DEB

International designator: 2022-151HP

Object number (NORAD): 54487

Object ID (CCSDS): 54487

Country: PEOPLES REPUBLIC OF CHINA (PRC)

Current information (Y/N): Y

RCS size: SMALL

Orbital parameters

Period: 97.759 minutes

Inclination: 98.6653 deg

SMA: 7029.626 km

Apoapsis: 695.825 km

Periapsis: 607.158 km

RAAN: 301.8211 deg

Eccentricy: 0.0063067

Argument of periapsis: 74.7185 deg

Mean anomaly: 286.0981 deg

Mean motion: 14.73005606 rev/day

Mean motion (dot): 0.0002796 rev/day2

B* drag term: 0.0042106757 1/REarth

Two-line elements (TLE)

Creation date: Sept. 7, 2025, 3:09 a.m.

Reference frame: TEME

Reference center: EARTH

Epoch: Sept. 6, 2025, 5:10 p.m. UTC

TLE line 0: 0 CZ-6A DEB

TLE line 1: 1 54487U 22151HP 25249.71560077 .00027960 00000-0 42107-2 0 9994

TLE line 2: 2 54487 98.6653 301.8211 0063067 74.7185 286.0981 14.73005606146958

Live tracking on map

Real-time ground track for satellite CZ-6A DEB.

In-orbit conjunctions

A list of the most updated potential collisions computed for object CZ-6A DEB.

Target Orbit TCA Probability of collision Miss distance Type
DELTA 1 R/B SSO 2025-02-27 10:00:48 0.0003340082 424.0 (m) ROCKET BODY
ATLAS 5 CENTAUR R/B SSO 2024-06-24 05:39:43 0.00010543 598.0 (m) ROCKET BODY

Associated space launch

Chinese satellite reported for atmospheric/ocean/environmental/spatial parameter research purposes, details TBD.

CZ-6A DEB was lifted into orbit during the mission ‘Long March 6A | Yunhai 3’, on board a Long March 6A space rocket.

The launch took place on Nov. 11, 2022, 10:52 p.m. from Launch Complex 9A.

For more information about the launch, click the button.

Launch to space Long March 6A | Yunhai 3
Long March 6A | Yunhai 3

Agency: N/A

Status: Launch Successful

Launch date: Nov. 11, 2022, 10:52 p.m. UTC

Rocket: Long March 6A

Launch pad: Launch Complex 9A

Location: Taiyuan Satellite Launch Center, People's Republic of China

...

Latest news about this satellite

There are no fresh news available about this satellite. Check back as we update our databases every day.


Newsletter sign-up

Weekly statistics, charts and insights to help you stay on top of the space industry.